OpenBCM V2.0.3 (Linux)

Packet Radio Mailbox

IZ3LSV

[San Dona' di P. JN]

 Login: GUEST





  
LU9DCE > KEPS     14.01.18 18:31l 258 Lines 12936 Bytes #999 (0) @ LUNET
BID : 29290_LU9DCE
Read: GUEST
Subj: SAT TLE OF 14
Path: IZ3LSV<IQ2LB<IQ5KG<IK1NHL<CX2SA<XE1FH<JE7YGF<LU4ECL<LU4ADN<LU9DCE
Sent: 180114/1601Z @:LU9DCE.TOR.BA.ARG.SOAM #:29290 [TORTUGUITAS] FBB7.0.8-beta
From: LU9DCE@LU9DCE.TOR.BA.ARG.SOAM
To  : KEPS@LUNET


            __    _  _  ___  ____   ___  ____    ____  ____  ____
           (  )  / )( \/ _ \(    \ / __)(  __)  (  _ \(  _ \/ ___)
           / (_/\) \/ (\__  )) D (( (__  ) _)    ) _ ( ) _ (\___ \
           \____/\____/(___/(____/ \___)(____)  (____/(____/(____/
               ESTACION DE PACKET RADIO - BUENOS AIRES (GF05OM)
                   BOLETINES INFORMATIVOS PROGRAMADOS (BIP)
                    LU9DCE@GMX.COM - RF 147070 @ 1200 BAUD
                        https://lu9dce.wordpress.com/
                      telnet lu9dce.dynu.com port 6300

+------------------------------------------------------------------------------+
OSCAR 7
1 07530U 74089B   18014.56609035 -.00000047  00000-0 -16735-4 0  9990
2 07530 101.6646 344.3318 0011818 273.4310 199.9768 12.53630667975342
OSCAR 11 (UoSAT 2)
1 14781U 84021B   18013.89265344 +.00000097 +00000-0 +18167-4 0  9993
2 14781 097.6705 056.5134 0007502 221.7613 138.3029 14.82973092800578
OSCAR 19 (LUSAT)
1 20442U 90005G   18013.89058432 -.00000003 +00000-0 +14919-4 0  9990
2 20442 098.5965 313.4524 0010710 243.6887 116.3197 14.32884150461730
KITSAT B
1 22825U 93061C   18013.87032846 -.00000001  00000-0  17293-4 0  9997
2 22825  98.8425 347.3601 0009484  78.0382 282.1862 14.30019163267512
POSAT 1
1 22826U 93061D   18013.92283249 +.00000005 +00000-0 +19501-4 0  9996
2 22826 098.8366 347.4703 0009953 068.8357 291.3888 14.30349884267450
RADIO ROSTO
1 23439U 94085A   18013.92698928 -.00000016 +00000-0 +74575-3 0  9992
2 23439 064.8139 238.3202 0162170 209.3926 248.9627 11.27566349949174
JAS 2
1 24278U 96046B   18013.61162202 -.00000030 +00000-0 +34473-5 0  9991
2 24278 098.5313 233.5363 0350862 151.7795 210.2857 13.53080366057088
TECHSAT 1B
1 25397U 98043D   18013.83245814 -.00000020 +00000-0 +10393-4 0  9991
2 25397 098.6345 316.9579 0002354 098.6938 261.4508 14.23637847013544
ISS (ZARYA)
1 25544U 98067A   18013.63875546 +.00002030 +00000-0 +37689-4 0  9999
2 25544 051.6429 069.1693 0003510 010.2617 092.7115 15.54301207094487
PCSAT
1 26931U 01043C   18014.11907914 -.00000014  00000-0  26491-4 0  9997
2 26931  67.0511 266.9504 0005248 276.7905  83.2599 14.30490512850514
SAUDISAT 1C
1 27607U 02058C   18013.87659438 +.00000003 +00000-0 +21129-4 0  9992
2 27607 064.5537 201.6866 0046438 007.1131 353.0619 14.75411609810061
CUTE-1
1 27844U 03031E   18014.50723085  .00000070  00000-0  51438-4 0  9998
2 27844  98.6884  25.4206 0010829  95.9995 264.2417 14.22088638754357
CUBESAT XI 4
1 27848U 03031J   18014.49433571  .00000051  00000-0  43256-4 0  9996
2 27848  98.6974  25.7517 0010715 105.0519 255.1844 14.21696153754223
MOZHAYETS 4
1 27939U 03042A   18014.53832192  .00000092  00000-0  25092-4 0  9999
2 27939  97.9661 157.8686 0011653 276.1939 143.5599 14.66649013764298
CUBESAT XI 5
1 28895U 05043F   18013.35171748 +.00000133 +00000-0 +34346-4 0  9994
2 28895 097.8858 171.2858 0016565 194.6473 165.4252 14.63497306650995
CUTE-1.7+APD II
1 32785U 08021C   18013.86188302 +.00000246 +00000-0 +32356-4 0  9990
2 32785 097.5538 033.3615 0012969 183.7978 176.3143 14.88045135526226
DELFI C3
1 32789U 08021G   18013.75214766 +.00001240 +00000-0 +89865-4 0  9998
2 32789 097.5344 072.3394 0014187 104.3738 255.9064 15.05674599528443
SEEDS
1 32791U 08021J   18013.59630910 +.00000394 +00000-0 +45804-4 0  9990
2 32791 097.5469 038.0888 0013770 167.1154 193.0419 14.90443766526488
YUBELEINY
1 32953U 08025A   18013.75063675  .00000004  00000-0 -39234-4 0  9999
2 32953  82.5041 108.7325 0019590 183.8080 176.2854 12.43080889437585
PRISM (HITOMI)
1 33493U 09002B   18014.41097913  .00000829  00000-0  79337-4 0  9993
2 33493  98.1458 270.4767 0016556 101.0899 259.2151 14.96044498487354
KKS-1 (KISEKI)
1 33499U 09002H   18014.49201416  .00000165  00000-0  32370-4 0  9991
2 33499  98.3458 191.3282 0010310  65.4480 294.7802 14.75284473482512
SWISSCUBE
1 35932U 09051B   18013.96502378  .00000119  00000-0  37934-4 0  9991
2 35932  98.5217 161.6290 0006934 330.6985  29.3822 14.56110338440991
BEESAT
1 35933U 09051C   18013.93481302 +.00000107 +00000-0 +35182-4 0  9992
2 35933 098.5257 163.0456 0005396 348.1372 011.9697 14.56219362441019
ITUPSAT 1
1 35935U 09051E   18014.38398082  .00000083  00000-0  30132-4 0  9999
2 35935  98.5369 163.7592 0007571 337.3226  22.7635 14.55402577440953
XIWANG-1 (HOPE-1)
1 36122U 09072B   18013.95035060 -.00000026 +00000-0 +43531-4 0  9992
2 36122 100.0852 035.7457 0008134 107.6623 252.5380 13.16342914388259
TISAT 1
1 36799U 10035E   18013.93705926 +.00000282 +00000-0 +34816-4 0  9995
2 36799 098.0844 146.3027 0012193 001.3496 358.7752 14.90666764406973
JUGNU
1 37839U 11058B   18013.02505961  .00000309  00000-0  22823-4 0  9999
2 37839  19.9605 258.1195 0018887 336.4680 156.3543 14.12606209323405
SRMSAT
1 37841U 11058D   18013.17760345  .00000303  00000-0  21346-4 0  9990
2 37841  19.9726 303.2011 0011804 227.0820 276.1670 14.10596033322967
M-CUBED/EXP-1 PRIME
1 37855U 11061F   18013.88900047 +.00001180 +00000-0 +68555-4 0  9999
2 37855 101.7220 357.4779 0177896 178.6942 181.4769 15.03979854338450
HORYU 2
1 38340U 12025D   18014.07045559  .00000233  00000-0  42398-4 0  9995
2 38340  98.3746  30.4302 0011242 347.4433  12.6494 14.75483307304383
STRAND 1
1 39090U 13009E   18013.80711427 +.00000030 +00000-0 +25744-4 0  9996
2 39090 098.5337 222.0619 0009945 040.8846 319.3084 14.35006477255666
BEESAT 3
1 39134U 13015E   18013.93786406 +.00001154 +00000-0 +64516-4 0  9993
2 39134 064.8632 265.7082 0029356 230.5341 129.3189 15.18712718261096
SOMP
1 39135U 13015F   18013.90889949 +.00000810 +00000-0 +51370-4 0  9999
2 39135 064.8694 277.1887 0030711 254.8665 104.9062 15.16315482260868
BEESAT 2
1 39136U 13015G   18013.89120065  .00000712  00000-0  47016-4 0  9998
2 39136  64.8696 279.6228 0030848 253.3003 106.4736 15.15798669261203
CUBEBUG 1
1 39153U 13018D   18014.19879263  .00000209  00000-0  34317-4 0  9996
2 39153  97.9820 110.3628 0018381  86.0787 274.2526 14.80324175254819
ZACUBE
1 39417U 13066B   18013.92165153 +.00000239 +00000-0 +36728-4 0  9999
2 39417 097.6054 050.6545 0057867 301.1000 058.4543 14.80859010223967
TRITON 1
1 39427U 13066M   18014.01316396  .00000235  00000-0  45449-4 0  9994
2 39427  97.6364  20.2168 0114967  33.9656 326.8842 14.67596774221960
GOMX 1
1 39430U 13066Q   18014.54955916  .00000269  00000-0  57182-4 0  9997
2 39430  97.6810   2.6481 0153071  95.5215 266.3467 14.59005122220756
HUMSAT D
1 39433U 13066T   18014.16978537  .00000592  00000-0  63866-4 0  9997
2 39433  97.6267  75.7719 0029948 233.6047 126.2409 14.91717607225460
50 SAT
1 39436U 13066W   18014.27897901  .00072058  00000-0  10539-2 0  9990
2 39436  97.7115 138.0452 0005493  30.5581 329.5991 15.55356987229233
CUBEBUG 2
1 39440U 13066AA  18014.55359541  .00000278  00000-0  45968-4 0  9990
2 39440  97.6111  38.8455 0079923 335.3754  24.3649 14.75597308223262
FUNCUBE 1
1 39444U 13066AE  18013.66000404  .00000279  00000-0  41114-4 0  9996
2 39444  97.6068  51.7338 0057003 297.8428  61.7017 14.81621147222771
UWE-3
1 39446U 13066AG  18013.89167308 +.00000241 +00000-0 +38946-4 0  9998
2 39446 097.6070 044.0758 0069304 319.8063 039.8034 14.78129550221731
SPROUT
1 39770U 14029E   18014.47112561  .00000744  00000-0  90000-4 0  9991
2 39770  97.8748 116.8787 0009036   3.8528 356.2742 14.86630408197526
UNISAT 6
1 40012U 14033C   18013.89194523 +.00000190 +00000-0 +36103-4 0  9999
2 40012 097.8297 255.6684 0058102 337.5039 022.3624 14.73750537191971
DUCHIFAT 1
1 40021U 14033M   18013.76050057  .00000423  00000-0  49518-4 0  9991
2 40021  97.9178 292.2019 0012470 333.6965  26.3617 14.90168372193957
QB50P1
1 40025U 14033R   18013.82083664 +.00000284 +00000-0 +36548-4 0  9996
2 40025 097.9093 289.5076 0012052 339.3192 020.7535 14.88615992193319
CHUBUSAT 1
1 40300U 14070C   18014.44950466  .00000658  00000-0  32295-4 0  9995
2 40300  97.3794  95.3458 0022171  81.7238 337.2696 15.21341215176908
NUDT-PHONESAT
1 40900U 15049B   18014.22799555  .00002127  00000-0  99871-4 0  9990
2 40900  97.4423  24.3233 0012954 201.8777 158.1907 15.20659563128514
ZDPS 2A
1 40901U 15049C   18014.18374303  .00000948  00000-0  51566-4 0  9994
2 40901  97.4585  22.9718 0012996 207.1534 152.9021 15.16798285128319
ZDPS 2B
1 40902U 15049D   18014.20322242  .00000884  00000-0  48604-4 0  9991
2 40902  97.4471  21.2749 0013129 204.0544 156.0077 15.16608626128300
XW-2A
1 40903U 15049E   18014.52442886  .00002119  00000-0  55337-4 0  9998
2 40903  97.4023  47.7504 0013275 219.4423 140.5858 15.39891018130159
KAITUO 1A
1 40904U 15049F   18014.45520203  .00000235  00000-0  16168-4 0  9997
2 40904  97.4574  20.9510 0013848 205.3875 313.5013 15.14845332128223
OBJECT G
1 40905U 15049G   18014.47533078  .00000483  00000-0  30288-4 0  9998
2 40905  97.4551  19.3079 0015319 197.1204 162.9513 15.13829605128168
XW-2C
1 40906U 15049H   18014.16952073  .00000686  00000-0  40226-4 0  9993
2 40906  97.4576  20.5304 0014536 197.9900 162.0819 15.14972996128176
XW-2D
1 40907U 15049J   18014.53275330  .00000829  00000-0  47701-4 0  9993
2 40907  97.4548  20.6049 0013991 194.3168 165.7670 15.15108598128236
LILACSAT 2
1 40908U 15049K   18013.96213658 +.00000428 +00000-0 +27577-4 0  9999
2 40908 097.4655 019.5965 0015544 197.1845 162.8862 15.13381102128041
XW-2F
1 40910U 15049M   18014.20076880  .00001130  00000-0  61837-4 0  9992
2 40910  97.4559  21.3183 0014797 192.2755 167.8119 15.16193604128114
XW-2B
1 40911U 15049N   18013.95046919 +.00000727 +00000-0 +42304-4 0  9993
2 40911 097.4586 020.5098 0013820 196.8714 163.2061 15.15057337128041
